Language: 


Des rapports , des résumés tant et plus, au choix de chacun....


Données statistiques de la station
Quotidien Rapport Décembre 9, 2017 Unités:  Métrique    Anglais   les deux
« Précédent Jour
Suivant Jour »
Quotidien Hebdomadaire Mensuel Annuel Actuel
  Haut: Bas: Moyen:
Température: -17.8 °C -18.6 °C -17.2 °C
Pt de rosée: -17.8 °C -19.4 °C -17.9 °C
Humidité: Humidity % 79 % 91 %
Vitesse du vent: 0 km/h 0 km/h 13.2 km/h
Rafales: 0 km/h - -
Vent:- - WSW
Pression: 0 hPa 34097 hPa -
Précipitation: 0 mm    
Historical Graphs
 
 
Données statistiques pour Décembre 9, 2017
Heure Température Point de rosée Pression Vent Vitesse du vent Refales Humidité Pluie (taux horaire)
-17.8 °C -17.8 °C 0 hPa Calm     Humidity % 0 mm
00:01 -17.7 °C -18.3 °C 34371.3 hPa WSW 14 km/h 19.6 km/h 87 % 0 mm
00:06 -17.7 °C -18.3 °C 34371.3 hPa West 14.5 km/h 22.5 km/h 88 % 0 mm
00:27 -17.7 °C -18.3 °C 34371.3 hPa West 14.5 km/h 20.3 km/h 89 % 0 mm
00:32 -17.7 °C -18.3 °C 34371.3 hPa West 16.3 km/h 20.3 km/h 89 % 0 mm
00:37 -17.7 °C -18.3 °C 34371.3 hPa West 15.6 km/h 19.2 km/h 89 % 0 mm
00:42 -17.7 °C -18.3 °C 34337.4 hPa West 12.2 km/h 18.7 km/h 90 % 0 mm
00:47 -17.6 °C -18.3 °C 34337.4 hPa West 12.7 km/h 20.3 km/h 91 % 0 mm
00:52 -17.6 °C -18.3 °C 34337.4 hPa West 10.3 km/h 22 km/h 91 % 0 mm
00:57 -17.5 °C -17.8 °C 34337.4 hPa West 14 km/h 22 km/h 91 % 0 mm
01:02 -17.5 °C -17.8 °C 34337.4 hPa West 4.2 km/h 22.5 km/h 91 % 0 mm
01:07 -17.6 °C -18.3 °C 34337.4 hPa West 18.7 km/h 22.5 km/h 91 % 0 mm
01:17 -17.6 °C -18.3 °C 34371.3 hPa West 20.9 km/h 20.9 km/h 91 % 0 mm
01:27 -17.6 °C -18.3 °C 34337.4 hPa West 15.6 km/h 20.9 km/h 91 % 0 mm
01:32 -17.6 °C -18.3 °C 34337.4 hPa West 19.2 km/h 19.2 km/h 91 % 0 mm
01:37 -17.6 °C -18.3 °C 34337.4 hPa WSW 16.3 km/h 19.2 km/h 91 % 0 mm
01:42 -17.7 °C -18.3 °C 34371.3 hPa West 16.9 km/h 19.2 km/h 90 % 0 mm
01:47 -17.7 °C -18.3 °C 34371.3 hPa WSW 2.3 km/h 16.9 km/h 90 % 0 mm
01:58 -17.8 °C -18.9 °C 34337.4 hPa WSW 9.3 km/h 18.7 km/h 91 % 0 mm
02:08 -17.9 °C -19.4 °C 34337.4 hPa SW 11.1 km/h 16.3 km/h 90 % 0 mm
02:13 -18 °C -19.4 °C 34371.3 hPa Calm   16.3 km/h 90 % 0 mm
02:18 -18.1 °C -19.4 °C 34371.3 hPa West 14 km/h 16.3 km/h 91 % 0 mm
02:28 -18.1 °C -19.4 °C 34371.3 hPa Calm   16.9 km/h 92 % 0 mm
02:38 -18.1 °C -19.4 °C 34371.3 hPa West 9.8 km/h 19.2 km/h 92 % 0 mm
02:43 -18.1 °C -18.9 °C 34371.3 hPa West 7.6 km/h 18.7 km/h 93 % 0 mm
02:48 -18.1 °C -18.9 °C 34371.3 hPa West 14 km/h 18.7 km/h 93 % 0 mm
02:53 -18.1 °C -18.9 °C 34371.3 hPa WSW 8.9 km/h 18.7 km/h 93 % 0 mm
02:59 -18.1 °C -18.9 °C 34371.3 hPa West 9.3 km/h 18.7 km/h 93 % 0 mm
03:04 -18.1 °C -18.9 °C 34371.3 hPa SW 9.3 km/h 13.7 km/h 94 % 0 mm
03:14 -18.2 °C -18.9 °C 34371.3 hPa WSW 14 km/h 17.9 km/h 94 % 0 mm
03:19 -18.2 °C -18.9 °C 34371.3 hPa WSW 11.1 km/h 16.3 km/h 94 % 0 mm
03:24 -18.2 °C -18.9 °C 34371.3 hPa West 10.3 km/h 16.3 km/h 94 % 0 mm
03:34 -18.2 °C -18.9 °C 34371.3 hPa West 9.8 km/h 14.5 km/h 95 % 0 mm
03:49 -18.2 °C -18.9 °C 34371.3 hPa Calm   16.3 km/h 95 % 0 mm
03:54 -18.3 °C -18.9 °C 34371.3 hPa WSW 2.3 km/h 15.6 km/h 95 % 0 mm
03:59 -18.3 °C -18.9 °C 34371.3 hPa WSW 10.3 km/h 15.6 km/h 95 % 0 mm
04:02 -18.3 °C -18.9 °C 34371.3 hPa West 12.7 km/h 15.6 km/h 95 % 0 mm
04:07 -18.3 °C -18.9 °C 34371.3 hPa West 16.9 km/h 16.9 km/h 95 % 0 mm
04:13 -18.2 °C -18.9 °C 34337.4 hPa West 8.9 km/h 22.5 km/h 95 % 0 mm
04:18 -18.2 °C -18.9 °C 34337.4 hPa West 15 km/h 22.5 km/h 96 % 0 mm
04:23 -18.1 °C -18.9 °C 34337.4 hPa WSW 14 km/h 19.6 km/h 96 % 0 mm
04:24 -18.1 °C -18.9 °C 34337.4 hPa West 20.3 km/h 20.3 km/h 96 % 0 mm
04:27 -18.1 °C -18.9 °C 34371.3 hPa West 15 km/h 20.3 km/h 96 % 0 mm
04:32 -18.1 °C -18.9 °C 34371.3 hPa West 16.9 km/h 20.9 km/h 97 % 0 mm
04:37 -18.1 °C -18.9 °C 34371.3 hPa West 19.6 km/h 20.9 km/h 97 % 0 mm
04:42 -18.1 °C -18.9 °C 34371.3 hPa WSW 20.3 km/h 20.3 km/h 97 % 0 mm
04:47 -18.1 °C -18.9 °C 34371.3 hPa West 22 km/h 22.5 km/h 97 % 0 mm
04:57 -18.1 °C -18.9 °C 34371.3 hPa WSW 15.6 km/h 20.9 km/h 97 % 0 mm
05:03 -18.1 °C -18.9 °C 34371.3 hPa West 19.6 km/h 22 km/h 96 % 0 mm
05:08 -18.1 °C -18.9 °C 34371.3 hPa WSW 14.5 km/h 22.5 km/h 96 % 0 mm
05:13 -18.1 °C -18.9 °C 34371.3 hPa WSW 15 km/h 24.3 km/h 96 % 0 mm
05:18 -18.1 °C -18.9 °C 34371.3 hPa West 14 km/h 24.3 km/h 96 % 0 mm
05:23 -18.1 °C -18.9 °C 34371.3 hPa WSW 15 km/h 19.6 km/h 96 % 0 mm
05:28 -18.1 °C -18.9 °C 34371.3 hPa West 11.1 km/h 22 km/h 96 % 0 mm
05:33 -18.1 °C -18.9 °C 34371.3 hPa WSW 18.7 km/h 22 km/h 96 % 0 mm
05:38 -18.1 °C -18.9 °C 34371.3 hPa WSW 7.6 km/h 20.9 km/h 97 % 0 mm
05:43 -18.1 °C -18.9 °C 34371.3 hPa WSW 14.5 km/h 20.9 km/h 97 % 0 mm
05:49 -18.1 °C -18.9 °C 34371.3 hPa West 14 km/h 22.5 km/h 97 % 0 mm
05:54 -18.1 °C -18.9 °C 34371.3 hPa West 16.3 km/h 22.5 km/h 97 % 0 mm
05:59 -18.1 °C -18.9 °C 34371.3 hPa West 10.3 km/h 20.9 km/h 97 % 0 mm
06:09 -18.1 °C -18.9 °C 34371.3 hPa SW 15 km/h 19.2 km/h 97 % 0 mm
06:14 -18.2 °C -18.9 °C 34371.3 hPa West 14 km/h 19.6 km/h 96 % 0 mm
06:19 -18.2 °C -18.9 °C 34371.3 hPa WNW 14.5 km/h 20.3 km/h 96 % 0 mm
06:24 -18.2 °C -18.9 °C 34371.3 hPa West 15.6 km/h 20.3 km/h 96 % 0 mm
06:29 -18.2 °C -18.9 °C 34371.3 hPa West 8 km/h 16.9 km/h 96 % 0 mm
06:34 -18.2 °C -18.9 °C 34371.3 hPa SW 15.6 km/h 24.8 km/h 96 % 0 mm
06:39 -18.2 °C -18.9 °C 34371.3 hPa West 16.9 km/h 24.8 km/h 96 % 0 mm
06:42 -18.2 °C -18.9 °C 34337.4 hPa West 11.1 km/h 24.8 km/h 96 % 0 mm
06:47 -18.2 °C -18.9 °C 34337.4 hPa West 12.7 km/h 19.2 km/h 97 % 0 mm
06:52 -18.2 °C -18.9 °C 34337.4 hPa West 12.7 km/h 16.9 km/h 97 % 0 mm
06:57 -18.3 °C -18.9 °C 34371.3 hPa Calm   14.5 km/h 96 % 0 mm
07:02 -18.4 °C -18.9 °C 34371.3 hPa WSW 8.9 km/h 12.7 km/h 96 % 0 mm
07:07 -18.4 °C -18.9 °C 34371.3 hPa WSW 8 km/h 16.3 km/h 96 % 0 mm
07:12 -18.4 °C -18.9 °C 34371.3 hPa West 11.1 km/h 19.6 km/h 96 % 0 mm
07:17 -18.3 °C -18.9 °C 34371.3 hPa West 11.1 km/h 19.6 km/h 97 % 0 mm
07:32 -18.4 °C -18.9 °C 34371.3 hPa WSW 15 km/h 19.2 km/h 97 % 0 mm
07:42 -18.5 °C -18.9 °C 34371.3 hPa WSW 12.7 km/h 16.3 km/h 97 % 0 mm
07:52 -18.5 °C -18.9 °C 34371.3 hPa West 15 km/h 16.9 km/h 97 % 0 mm
07:57 -18.5 °C -18.9 °C 34371.3 hPa WSW 11.1 km/h 16.9 km/h 97 % 0 mm
08:02 -18.5 °C -18.9 °C 34371.3 hPa West 16.3 km/h 16.9 km/h 97 % 0 mm
08:07 -18.5 °C -18.9 °C 34371.3 hPa WSW 15 km/h 16.9 km/h 97 % 0 mm
08:12 -18.5 °C -18.9 °C 34337.4 hPa WSW 15.6 km/h 19.2 km/h 97 % 0 mm
08:17 -18.5 °C -18.9 °C 34337.4 hPa West 15 km/h 22 km/h 97 % 0 mm
08:22 -18.6 °C -18.9 °C 34337.4 hPa WSW 15.6 km/h 22 km/h 98 % 0 mm
08:28 -18.5 °C -18.9 °C 34371.3 hPa West 12.7 km/h 17.9 km/h 98 % 0 mm
08:38 -18.5 °C -18.9 °C 34371.3 hPa West 9.3 km/h 19.6 km/h 98 % 0 mm
08:48 -18.4 °C -18.9 °C 34371.3 hPa WSW 16.3 km/h 20.9 km/h 98 % 0 mm
08:55 -18.4 °C -18.9 °C 34371.3 hPa WSW 14 km/h 28.5 km/h 98 % 0 mm
09:01 -18.4 °C -18.9 °C 34371.3 hPa West 19.6 km/h 28.5 km/h 98 % 0 mm
09:06 -18.4 °C -18.9 °C 34371.3 hPa West 16.9 km/h 27.2 km/h 98 % 0 mm
09:11 -18.1 °C -18.3 °C 34371.3 hPa West 15 km/h 27.2 km/h 98 % 0 mm
09:16 -18 °C -18.3 °C 34371.3 hPa WSW 22 km/h 22 km/h 98 % 0 mm
09:21 -18 °C -18.3 °C 34371.3 hPa West 10.3 km/h 25.4 km/h 98 % 0 mm
09:26 -18 °C -18.3 °C 34371.3 hPa West 16.9 km/h 25.4 km/h 98 % 0 mm
09:31 -18 °C -18.3 °C 34371.3 hPa West 23.8 km/h 23.8 km/h 98 % 0 mm
09:32 -18 °C -18.3 °C 34371.3 hPa West 17.4 km/h 23.8 km/h 98 % 0 mm
09:38 -18 °C -18.3 °C 34371.3 hPa West 12.7 km/h 23.8 km/h 98 % 0 mm
09:43 -18 °C -18.3 °C 34405.1 hPa WSW 19.6 km/h 26.7 km/h 98 % 0 mm
09:48 -18 °C -18.3 °C 34405.1 hPa WSW 17.4 km/h 26.7 km/h 98 % 0 mm
09:53 -18 °C -18.3 °C 34405.1 hPa WSW 22 km/h 24.8 km/h 98 % 0 mm
09:58 -18 °C -18.3 °C 34405.1 hPa West 20.3 km/h 22.5 km/h 98 % 0 mm
10:03 -18 °C -18.3 °C 34405.1 hPa WSW 16.3 km/h 25.4 km/h 98 % 0 mm
10:08 -18 °C -18.3 °C 34405.1 hPa WSW 19.6 km/h 25.4 km/h 98 % 0 mm
10:18 -18 °C -18.3 °C 34405.1 hPa WSW 14.5 km/h 22 km/h 98 % 0 mm
10:23 -18 °C -18.3 °C 34405.1 hPa WSW 11.1 km/h 22 km/h 98 % 0 mm
10:33 -18 °C -18.3 °C 34405.1 hPa WSW 17.9 km/h 19.6 km/h 98 % 0 mm
10:38 -16.9 °C -17.2 °C 34405.1 hPa WSW 14 km/h 17.9 km/h 97 % 0 mm
10:43 -16.9 °C -17.2 °C 34371.3 hPa West 14.5 km/h 19.6 km/h 97 % 0 mm
10:53 -16.8 °C -17.2 °C 34371.3 hPa WSW 15 km/h 26.7 km/h 95 % 0 mm
10:58 -16.7 °C -17.2 °C 34405.1 hPa West 22.5 km/h 25.4 km/h 94 % 0 mm
11:03 -16.7 °C -17.2 °C 34405.1 hPa WSW 19.2 km/h 26.7 km/h 93 % 0 mm
11:08 -16.6 °C -17.2 °C 34405.1 hPa WSW 22 km/h 26.7 km/h 93 % 0 mm
11:13 -16.5 °C -17.2 °C 34405.1 hPa WSW 20.3 km/h 22.5 km/h 92 % 0 mm
11:24 -16.3 °C -16.7 °C 34405.1 hPa WSW 26.7 km/h 27.2 km/h 91 % 0 mm
11:29 -16.3 °C -17.2 °C 34405.1 hPa WSW 20.9 km/h 27.2 km/h 90 % 0 mm
11:34 -16.2 °C -16.7 °C 34405.1 hPa WSW 18.7 km/h 27.2 km/h 90 % 0 mm
11:44 -16.1 °C -16.7 °C 34405.1 hPa West 22.5 km/h 29 km/h 89 % 0 mm
11:49 -16.1 °C -17.2 °C 34405.1 hPa West 20.3 km/h 30.7 km/h 88 % 0 mm
12:09 -15.8 °C -16.7 °C 34371.3 hPa WSW 20.9 km/h 27.2 km/h 87 % 0 mm
12:14 -15.8 °C -16.7 °C 34371.3 hPa WSW 22.5 km/h 28.5 km/h 86 % 0 mm
12:19 -15.7 °C -16.7 °C 34371.3 hPa WSW 15.6 km/h 28.5 km/h 86 % 0 mm
12:29 -15.6 °C -16.7 °C 34371.3 hPa WSW 22.5 km/h 31.9 km/h 85 % 0 mm
12:49 -15.4 °C -16.7 °C 34371.3 hPa WNW 16.9 km/h 27.2 km/h 82 % 0 mm
13:00 -15.6 °C -17.2 °C 34371.3 hPa West 20.3 km/h 33.6 km/h 79 % 0 mm
13:10 -15.7 °C -17.2 °C 34371.3 hPa WSW 20.9 km/h 31.4 km/h 80 % 0 mm
13:15 -15.8 °C -17.2 °C 34371.3 hPa West 15.6 km/h 32.3 km/h 80 % 0 mm
13:20 -15.8 °C -17.2 °C 34371.3 hPa WSW 22 km/h 33.6 km/h 80 % 0 mm
13:25 -15.8 °C -17.2 °C 34371.3 hPa West 15.6 km/h 33.6 km/h 80 % 0 mm
13:30 -15.8 °C -17.2 °C 34405.1 hPa West 16.3 km/h 30.7 km/h 81 % 0 mm
13:35 -15.8 °C -17.2 °C 34405.1 hPa West 22 km/h 32.3 km/h 80 % 0 mm
13:40 -15.8 °C -17.2 °C 34405.1 hPa SW 26.2 km/h 38.3 km/h 79 % 0 mm
13:45 -15.8 °C -17.2 °C 34371.3 hPa West 15.6 km/h 38.3 km/h 79 % 0 mm
13:50 -15.8 °C -17.2 °C 34371.3 hPa West 22 km/h 33.2 km/h 80 % 0 mm
13:56 -15.9 °C -17.8 °C 34371.3 hPa West 14.5 km/h 28.5 km/h 79 % 0 mm
14:01 -15.9 °C -17.2 °C 34371.3 hPa WSW 20.3 km/h 28.5 km/h 80 % 0 mm
14:06 -15.8 °C -17.2 °C 34371.3 hPa West 15.6 km/h 25.4 km/h 80 % 0 mm
14:11 -15.8 °C -17.2 °C 34371.3 hPa West 22.5 km/h 24.8 km/h 81 % 0 mm
14:16 -15.8 °C -17.2 °C 34371.3 hPa WSW 15 km/h 26.2 km/h 80 % 0 mm
14:21 -15.8 °C -17.2 °C 34371.3 hPa West 16.9 km/h 26.2 km/h 79 % 0 mm
14:31 -15.8 °C -17.2 °C 34337.4 hPa WSW 15 km/h 23.8 km/h 79 % 0 mm
14:36 -15.8 °C -17.2 °C 34337.4 hPa WSW 19.2 km/h 22.5 km/h 79 % 0 mm
14:46 -15.8 °C -17.2 °C 34337.4 hPa WSW 9.8 km/h 22.5 km/h 80 % 0 mm
14:51 -15.8 °C -17.2 °C 34337.4 hPa West 10.3 km/h 20.9 km/h 81 % 0 mm
15:01 -15.8 °C -17.2 °C 34337.4 hPa WSW 11.1 km/h 16.3 km/h 82 % 0 mm
15:06 -15.9 °C -17.2 °C 34337.4 hPa WSW 10.3 km/h 16.3 km/h 82 % 0 mm
15:11 -15.9 °C -17.2 °C 34337.4 hPa SW 12.2 km/h 16.3 km/h 82 % 0 mm
15:16 -15.9 °C -17.2 °C 34337.4 hPa WSW 12.7 km/h 16.3 km/h 82 % 0 mm
15:21 -15.9 °C -17.2 °C 34337.4 hPa West 15 km/h 16.9 km/h 82 % 0 mm
15:26 -15.9 °C -17.2 °C 34303.6 hPa WSW 12.2 km/h 20.9 km/h 82 % 0 mm
15:36 -15.7 °C -17.2 °C 34303.6 hPa WSW 16.3 km/h 18.7 km/h 82 % 0 mm
15:41 -15.7 °C -17.2 °C 34303.6 hPa Calm   18.7 km/h 82 % 0 mm
15:46 -15.8 °C -17.2 °C 34303.6 hPa WSW 11.6 km/h 19.6 km/h 82 % 0 mm
15:51 -15.8 °C -17.2 °C 34303.6 hPa SW 9.8 km/h 19.6 km/h 81 % 0 mm
16:02 -15.9 °C -17.2 °C 34303.6 hPa SSW 9.8 km/h 15 km/h 81 % 0 mm
16:07 -15.9 °C -17.2 °C 34303.6 hPa SW 12.7 km/h 14.5 km/h 81 % 0 mm
16:12 -15.9 °C -17.2 °C 34303.6 hPa SSW 7.6 km/h 14.5 km/h 80 % 0 mm
16:17 -15.9 °C -17.2 °C 34303.6 hPa Calm   15 km/h 80 % 0 mm
16:22 -16.1 °C -17.8 °C 34303.6 hPa Calm   15 km/h 80 % 0 mm
16:27 -16.1 °C -17.8 °C 34303.6 hPa SSW 11.1 km/h 15 km/h 80 % 0 mm
16:32 -16.2 °C -17.8 °C 34303.6 hPa SW 9.8 km/h 14.5 km/h 81 % 0 mm
16:37 -16.2 °C -17.8 °C 34303.6 hPa Calm   12.2 km/h 81 % 0 mm
16:42 -16.3 °C -17.8 °C 34303.6 hPa SW 8 km/h 12.7 km/h 81 % 0 mm
16:47 -16.3 °C -17.8 °C 34303.6 hPa SSW 8 km/h 12.7 km/h 81 % 0 mm
16:52 -16.4 °C -17.8 °C 34303.6 hPa Calm   14 km/h 82 % 0 mm
16:57 -16.4 °C -17.8 °C 34303.6 hPa SW 12.7 km/h 15.6 km/h 82 % 0 mm
17:02 -16.4 °C -17.8 °C 34303.6 hPa SW 14 km/h 15.6 km/h 82 % 0 mm
17:17 -16.7 °C -18.3 °C 34303.6 hPa WSW 14 km/h 16.3 km/h 81 % 0 mm
17:22 -16.8 °C -18.3 °C 34303.6 hPa WSW 14.5 km/h 16.3 km/h 82 % 0 mm
17:27 -16.9 °C -18.3 °C 34269.7 hPa WSW 12.7 km/h 15.6 km/h 82 % 0 mm
17:32 -16.9 °C -18.3 °C 34269.7 hPa Calm   15 km/h 83 % 0 mm
17:38 -17 °C -18.3 °C 34269.7 hPa WSW 12.7 km/h 15 km/h 83 % 0 mm
17:39 -17 °C -18.3 °C 34269.7 hPa WSW 8 km/h 15 km/h 83 % 0 mm
17:44 -17.1 °C -18.3 °C 34269.7 hPa WSW 14 km/h 14.5 km/h 84 % 0 mm
17:49 -16.9 °C -17.8 °C 34269.7 hPa SW 12.7 km/h 16.3 km/h 85 % 0 mm
17:54 -16.9 °C -17.8 °C 34269.7 hPa SSW 9.8 km/h 16.3 km/h 85 % 0 mm
17:59 -16.8 °C -17.8 °C 34269.7 hPa SSW 16.3 km/h 16.3 km/h 85 % 0 mm
18:09 -16.7 °C -17.8 °C 34269.7 hPa SSW 16.9 km/h 22.5 km/h 85 % 0 mm
18:14 -16.7 °C -17.8 °C 34269.7 hPa SSW 10.3 km/h 20.9 km/h 86 % 0 mm
18:20 -16.8 °C -17.8 °C 34269.7 hPa WSW 12.7 km/h 19.6 km/h 86 % 0 mm
18:25 -16.8 °C -17.8 °C 34269.7 hPa SW 12.7 km/h 19.2 km/h 86 % 0 mm
18:30 -16.8 °C -17.8 °C 34269.7 hPa WSW 19.2 km/h 22.5 km/h 87 % 0 mm
18:45 -16.8 °C -17.8 °C 34235.8 hPa SSW 15.6 km/h 23 km/h 89 % 0 mm
18:50 -16.8 °C -17.8 °C 34235.8 hPa SW 16.3 km/h 25.4 km/h 89 % 0 mm
18:55 -16.9 °C -17.8 °C 34235.8 hPa SSW 22 km/h 26.7 km/h 90 % 0 mm
19:00 -16.9 °C -17.2 °C 34235.8 hPa SSW 15 km/h 26.7 km/h 91 % 0 mm
19:05 -16.9 °C -17.2 °C 34235.8 hPa SSW 15 km/h 22.5 km/h 91 % 0 mm
19:10 -16.9 °C -17.2 °C 34235.8 hPa WSW 10.3 km/h 22.5 km/h 91 % 0 mm
19:20 -17 °C -17.8 °C 34235.8 hPa SSW 10.3 km/h 16.9 km/h 92 % 0 mm
19:25 -17.1 °C -17.8 °C 34235.8 hPa South 16.9 km/h 17.4 km/h 92 % 0 mm
19:50 -17.1 °C -17.2 °C 34235.8 hPa SSW 15 km/h 19.2 km/h 94 % 0 mm
19:55 -17.1 °C -17.2 °C 34235.8 hPa Calm   19.2 km/h 94 % 0 mm
20:00 -17.1 °C -17.2 °C 34235.8 hPa SW 14 km/h 16.9 km/h 95 % 0 mm
20:06 -17.1 °C -17.2 °C 34235.8 hPa SSW 12.7 km/h 22.5 km/h 95 % 0 mm
20:16 -17.1 °C -17.2 °C 34235.8 hPa WSW 11.1 km/h 18.7 km/h 96 % 0 mm
20:31 -17 °C -17.2 °C 34235.8 hPa South 14 km/h 16.9 km/h 97 % 0 mm
20:36 -17 °C -17.2 °C 34235.8 hPa SW 11.1 km/h 17.4 km/h 97 % 0 mm
20:41 -16.9 °C -17.2 °C 34235.8 hPa SW 15.6 km/h 17.4 km/h 97 % 0 mm
20:46 -16.9 °C -17.2 °C 34235.8 hPa SW 22 km/h 22 km/h 97 % 0 mm
20:51 -16.9 °C -17.2 °C 34235.8 hPa SW 10.3 km/h 22 km/h 97 % 0 mm
20:56 -16.9 °C -16.7 °C 34198.6 hPa WSW 20.9 km/h 22.5 km/h 98 % 0 mm
21:01 -16.9 °C -16.7 °C 34198.6 hPa WSW 12.7 km/h 22.5 km/h 98 % 0 mm
21:06 -16.8 °C -16.7 °C 34198.6 hPa SW 15 km/h 22.5 km/h 98 % 0 mm
21:16 -16.9 °C -16.7 °C 34198.6 hPa SW 12.7 km/h 20.3 km/h 98 % 0 mm
21:21 -16.8 °C -16.7 °C 34198.6 hPa WSW 16.9 km/h 20.9 km/h 98 % 0 mm
21:26 -16.8 °C -16.7 °C 34164.7 hPa SW 17.4 km/h 20.9 km/h 98 % 0 mm
21:32 -16.8 °C -16.7 °C 34164.7 hPa SSW 10.3 km/h 18.7 km/h 98 % 0 mm
21:37 -16.9 °C -16.7 °C 34164.7 hPa SSW 12.7 km/h 18.7 km/h 98 % 0 mm
21:47 -16.8 °C -16.7 °C 34164.7 hPa WSW 12.7 km/h 18.7 km/h 98 % 0 mm
21:52 -16.8 °C -16.7 °C 34164.7 hPa South 10.3 km/h 16.9 km/h 98 % 0 mm
22:02 -16.9 °C -16.7 °C 34164.7 hPa SW 17.4 km/h 17.4 km/h 98 % 0 mm
22:07 -16.9 °C -16.7 °C 34164.7 hPa SSW 9.3 km/h 19.2 km/h 98 % 0 mm
22:12 -16.9 °C -16.7 °C 34164.7 hPa SW 14 km/h 19.2 km/h 98 % 0 mm
22:17 -16.9 °C -16.7 °C 34164.7 hPa SW 8 km/h 16.3 km/h 98 % 0 mm
22:22 -16.9 °C -16.7 °C 34164.7 hPa SSW 11.1 km/h 15 km/h 98 % 0 mm
22:27 -16.9 °C -16.7 °C 34164.7 hPa Calm   15 km/h 98 % 0 mm
22:32 -17 °C -17.2 °C 34164.7 hPa Calm   12.7 km/h 98 % 0 mm
22:37 -17 °C -17.2 °C 34164.7 hPa West 9.3 km/h 9.3 km/h 98 % 0 mm
22:42 -17 °C -17.2 °C 34164.7 hPa Calm   9.3 km/h 98 % 0 mm
22:47 -17 °C -17.2 °C 34164.7 hPa SSW 7.6 km/h 11.1 km/h 98 % 0 mm
22:52 -17 °C -17.2 °C 34164.7 hPa Calm   11.1 km/h 98 % 0 mm
22:57 -17 °C -17.2 °C 34130.9 hPa South 4.2 km/h 11.1 km/h 98 % 0 mm
23:02 -17 °C -17.2 °C 34130.9 hPa Calm   8 km/h 98 % 0 mm
23:08 -17 °C -17.2 °C 34130.9 hPa Calm   8.9 km/h 98 % 0 mm
23:18 -17 °C -17.2 °C 34097 hPa SSW 8 km/h 14 km/h 98 % 0 mm
23:23 -17 °C -17.2 °C 34097 hPa SW 6.9 km/h 14 km/h 98 % 0 mm
23:28 -17 °C -17.2 °C 34097 hPa Calm   12.7 km/h 98 % 0 mm
23:33 -17 °C -17.2 °C 34097 hPa SSW 6.9 km/h 10.3 km/h 98 % 0 mm
23:38 -17 °C -17.2 °C 34097 hPa Calm   10.3 km/h 98 % 0 mm
23:53 -17 °C -17.2 °C 34097 hPa SW 14.5 km/h 19.6 km/h 98 % 0 mm
23:58 -17 °C -17.2 °C 34097 hPa SSW 9.8 km/h 18.7 km/h 98 % 0 mm
Le Gheer Warneton
Courtoisie de Weather Underground - 2 mb

Mise a jour : 24/02/2018 15:09:11
Généré par Cumulus 1.9.4 (1099)